Theta_e
307 308 308 308 308 308 308 309 309 308 307 307 311 314 316 317 317 317 318 318 319 317 313 312 308 310 312 313 312 309 315 316 313 314 313 313 314 317 318 318 319 318 319 322 320 322 324
309 307 307 307 307 307 308 308 308 308 308 308 304 305 310 315 316 315 317 317 317 319 316 313 310 309 313 313 309 311 315 315 314 314 312 313 318 318 319 319 319 319 324 328 325 326 328
307 309 308 307 307 307 307 307 307 307 308 308 307 304 308 313 314 314 315 317 317 318 318 315 311 311 314 314 312 316 313 314 314 313 313 314 315 318 319 319 319 319 325 328 328 328 328
305 305 307 308 307 306 306 306 306 307 307 307 307 307 304 309 311 312 314 316 316 317 318 314 310 312 315 311 311 314 315 316 315 314 313 314 315 318 319 320 320 321 326 322 329 328 325
304 304 305 305 306 308 306 306 306 306 306 307 307 307 306 303 309 312 314 316 316 317 314 311 313 315 315 310 311 311 316 317 317 316 315 313 316 320 320 319 319 321 321 322 325 325 325
304 303 303 303 303 304 307 306 305 305 306 306 306 306 307 303 308 312 314 315 315 314 312 313 313 317 315 313 314 316 314 315 318 318 318 318 321 321 320 319 318 320 320 321 324 324 326
306 305 304 303 302 302 305 307 306 305 305 305 306 306 306 305 309 313 315 316 317 318 316 317 318 317 311 314 317 318 318 317 318 320 321 322 321 321 319 320 320 321 321 320 322 323 322
301 305 305 304 302 302 303 305 306 306 305 305 305 306 306 306 309 313 315 316 317 315 317 315 316 317 316 314 319 319 317 320 320 321 321 323 321 321 321 321 322 322 321 320 321 321 321
300 301 302 303 303 303 303 302 303 305 305 305 305 305 306 305 309 313 315 315 314 313 320 318 318 316 315 316 317 318 317 319 320 320 321 321 322 321 321 322 323 323 322 321 321 321 321
303 302 301 302 303 303 303 302 299 300 305 305 305 305 305 305 308 313 314 314 314 314 320 315 315 316 316 317 319 317 318 318 319 320 320 321 321 321 322 322 322 321 321 321 322 322 322
303 302 303 302 302 302 303 303 302 300 301 306 304 304 305 305 313 315 315 316 315 316 312 314 319 317 318 316 317 318 317 318 319 320 321 321 322 322 323 322 322 321 321 322 322 322 323
303 303 303 303 302 302 302 303 302 301 300 301 305 304 305 305 309 313 313 316 316 322 316 313 320 321 320 318 317 317 317 318 319 319 320 320 320 321 321 321 322 321 322 322 323 323 324
303 303 303 303 303 302 302 302 303 302 300 303 304 304 304 306 309 311 314 319 321 317 313 312 321 320 318 318 317 318 318 320 320 320 320 320 320 320 320 321 322 322 323 325 326 326 326
303 304 304 304 303 303 303 302 302 302 301 300 301 303 304 305 307 313 314 322 315 310 312 316 318 320 319 316 317 318 318 319 319 318 318 321 320 320 321 321 322 323 323 325 326 326 324
304 304 303 304 304 304 303 303 302 303 302 299 302 303 303 305 306 311 317 320 310 312 314 315 316 323 320 315 317 318 318 318 319 319 318 320 318 319 321 321 321 323 323 322 324 325 327
305 304 304 304 303 304 304 303 303 302 302 300 303 303 304 304 306 307 315 316 311 312 316 319 314 320 323 315 317 318 319 318 318 318 318 319 319 321 322 322 321 322 322 324 324 326 325
304 304 304 304 304 304 304 304 303 303 302 301 302 304 304 303 305 307 313 314 311 315 317 320 320 319 319 317 316 318 318 317 318 318 318 319 320 323 323 324 323 323 323 322 323 323 324
300 304 305 304 303 303 304 304 304 303 302 302 302 305 304 304 306 307 312 313 310 313 318 319 321 322 324 318 317 316 318 317 317 318 319 319 320 321 321 320 321 323 323 323 325 325 324
300 299 299 301 301 301 304 304 304 303 303 302 303 304 304 304 307 306 309 310 311 313 317 318 320 321 322 323 319 318 318 318 316 318 319 320 320 321 320 320 321 321 321 321 322 322 322
300 300 300 300 300 300 302 303 304 303 303 302 302 305 305 306 306 306 308 311 310 311 313 317 318 320 321 321 320 320 317 317 317 318 317 319 319 320 321 319 319 321 321 321 322 324 321
300 300 300 300 300 301 301 303 303 303 303 301 303 307 305 306 308 307 308 308 310 311 313 315 318 319 321 321 319 320 318 320 317 317 317 320 320 320 318 317 317 317 318 319 320 321 321
301 301 301 300 300 300 301 302 302 303 303 301 302 306 308 307 307 307 309 310 310 311 311 315 316 318 319 320 319 322 320 320 321 321 319 320 320 321 320 319 318 318 318 318 319 319 321
302 302 302 301 301 301 301 301 301 303 302 302 302 304 307 307 307 307 309 308 309 311 311 311 315 316 318 318 317 317 317 318 318 321 322 322 321 321 321 320 320 322 321 320 320 321 322
302 301 302 302 301 301 301 301 301 303 302 301 302 304 307 308 308 307 306 306 307 309 312 311 312 315 315 315 316 317 317 317 319 320 321 323 323 323 322 320 330 320 319 320 320 321 321
301 301 301 302 301 301 302 302 302 302 301 302 301 304 306 309 307 307 306 306 307 308 311 310 312 312 315 313 313 313 317 317 317 319 322 322 323 324 331 324 321 318 317 319 321 321 320
301 302 302 300 301 301 302 301 303 302 301 302 303 303 306 308 307 306 308 306 308 309 312 311 312 314 315 317 318 317 312 313 318 322 317 318 320 326 321 325 332 321 320 319 318 323 319
301 301 301 301 301 302 302 301 303 302 302 302 302 302 306 306 305 306 309 308 307 309 313 312 314 315 315 319 322 319 316 317 318 322 323 321 321 327 326 328 324 321 318 316 321 323 320
302 302 302 301 302 302 301 303 302 301 301 301 303 304 306 306 306 306 307 309 308 310 313 312 314 315 316 319 319 320 323 320 321 319 323 323 325 327 325 331 330 317 315 320 322 321 320
302 302 302 302 303 302 303 303 302 301 301 301 301 302 303 306 306 304 305 306 307 309 311 313 311 310 315 315 318 316 325 322 320 322 319 324 322 325 323 324 322 318 320 318 320 320 318
Wind_Speed
21 21 20 19 17 16 16 15 15 15 14 17 21 20 19 17 17 19 18 19 20 20 20 22 23 23 11 7 8 4 5 10 16 9 11 9 9 5 7 3 5 10 8 8 5 6 6
21 23 23 22 20 19 17 17 17 16 16 16 16 16 18 18 17 19 20 19 21 21 21 22 23 20 5 11 3 3 6 14 10 12 10 8 3 2 6 6 7 2 7 4 1 4 4
25 21 23 24 23 21 20 19 19 18 17 16 17 15 15 15 19 19 20 19 21 22 23 21 23 8 6 15 4 7 12 6 10 9 8 7 2 4 3 5 2 5 9 5 6 5 2
24 29 24 23 25 25 22 21 19 18 18 17 16 17 14 15 17 16 20 20 22 23 25 21 13 5 8 6 8 10 11 7 9 8 4 3 3 5 4 4 5 7 6 8 8 7 3
25 26 27 27 26 23 26 24 23 20 19 18 16 16 16 14 13 15 16 18 20 22 20 5 2 6 8 3 7 14 17 6 8 8 6 3 4 3 5 9 8 8 9 3 7 3 3
26 25 26 27 31 29 25 25 26 22 20 19 17 15 15 12 12 13 14 17 20 15 2 2 4 6 8 4 5 6 15 13 5 9 6 7 5 8 7 8 9 7 10 8 6 9 9
30 30 29 28 27 29 28 25 25 25 22 20 18 15 14 9 9 9 10 9 6 5 6 9 4 6 1 2 4 10 9 13 10 9 11 9 8 10 5 3 9 5 8 8 5 3 5
37 33 32 32 31 29 26 28 25 25 24 21 18 15 13 8 8 6 5 5 3 3 10 15 19 19 20 2 4 10 13 13 11 14 7 7 11 4 3 4 5 6 8 8 3 7 5
41 38 36 35 35 33 29 27 31 25 25 23 19 17 12 9 8 7 9 8 3 4 7 10 12 10 9 17 10 13 15 16 15 15 14 12 3 3 7 8 9 9 10 4 6 6 6
40 39 38 37 37 35 34 31 28 37 28 25 21 18 14 8 7 8 7 6 6 7 6 6 8 8 10 10 11 17 20 15 7 17 13 11 6 8 9 11 10 11 5 7 7 7 8
43 43 41 39 38 38 37 35 32 28 36 25 24 20 16 17 3 7 7 3 8 7 6 5 5 6 8 18 13 17 23 10 18 12 9 9 9 10 10 10 7 4 2 3 6 9 6
45 44 43 41 40 39 38 38 35 31 31 37 25 22 18 17 16 7 11 2 6 5 9 3 6 8 9 14 7 14 13 8 8 11 9 8 2 5 4 4 8 6 5 4 5 6 9
47 46 45 44 42 42 40 39 36 34 30 31 27 23 23 20 13 16 9 5 6 10 2 6 5 8 13 13 12 18 22 20 16 17 16 14 13 6 6 7 7 10 7 6 6 6 7
47 47 47 46 44 43 42 41 39 36 32 29 33 24 26 27 22 7 13 7 14 8 16 1 3 8 10 15 13 17 23 21 23 19 12 14 13 15 11 13 9 14 12 6 5 4 2
48 48 48 48 45 44 43 43 41 38 33 29 24 26 26 29 24 15 8 13 14 14 12 7 6 8 10 10 8 14 20 24 23 20 14 15 13 5 7 5 10 7 9 4 2 1 4
50 49 49 47 49 47 45 44 44 41 36 31 26 19 26 26 23 16 9 27 18 15 9 9 13 8 12 14 10 15 18 19 23 21 18 7 9 5 7 6 4 7 10 6 5 5 6
52 51 51 49 48 49 47 46 45 44 39 33 23 7 17 33 20 7 13 28 27 15 12 9 11 7 5 13 18 16 14 6 23 20 20 10 9 6 7 11 11 6 7 4 3 3 4
33 37 51 50 48 48 49 49 49 48 43 36 15 10 24 36 9 6 17 30 16 23 16 6 4 6 5 8 14 19 22 15 17 21 21 16 9 9 13 3 5 9 11 11 7 6 3
41 42 42 45 46 47 50 50 53 53 51 36 7 4 30 31 13 15 25 29 28 22 23 13 11 7 4 2 5 16 12 12 13 19 18 13 9 10 9 6 4 9 11 12 7 3 11
48 49 48 48 49 49 49 52 56 59 56 37 6 6 5 12 18 29 25 26 29 26 25 13 11 8 7 4 4 3 8 5 11 16 1 16 14 16 13 13 11 11 13 15 14 8 11
52 53 53 52 52 51 50 53 56 63 62 36 8 7 9 15 19 29 29 22 27 21 23 19 15 17 11 6 3 2 1 4 5 4 6 11 16 17 17 16 15 16 14 15 16 16 13
52 53 55 55 54 53 53 54 57 66 66 23 6 8 14 14 26 31 28 27 27 32 24 24 18 20 11 12 4 5 5 8 2 4 6 6 10 10 12 13 13 16 17 18 18 17 12
48 49 52 56 57 56 53 54 57 69 66 9 17 19 13 16 24 21 25 29 31 26 27 26 21 13 18 18 10 5 5 6 7 5 6 4 9 8 13 8 8 6 15 16 16 14 14
40 42 46 56 59 57 53 54 56 71 66 26 29 11 10 13 15 22 30 28 26 27 28 13 21 17 8 5 4 2 3 5 9 10 10 5 9 5 5 4 7 10 3 17 18 15 14
36 44 40 57 57 54 54 56 60 71 67 27 35 14 9 12 18 20 27 32 21 19 23 20 13 16 7 7 4 6 5 4 9 7 12 14 7 4 4 9 10 3 5 8 13 15 16
21 36 40 48 53 54 53 56 62 70 67 28 28 27 6 12 16 22 19 24 21 18 19 18 17 7 12 5 5 9 8 6 7 4 2 7 8 7 3 7 8 9 12 11 4 14 11
19 35 40 45 48 51 52 54 69 65 60 30 18 27 13 9 12 13 14 18 22 17 15 15 10 8 10 7 4 5 6 6 9 10 5 5 4 11 11 7 6 4 9 11 10 15 4
22 32 41 46 49 49 50 61 67 63 38 38 22 21 17 8 7 7 12 15 18 16 14 15 11 7 7 9 7 5 4 5 5 11 7 8 8 5 7 6 11 11 10 12 13 4 7
28 33 38 42 44 46 57 64 63 60 39 29 11 10 9 3 4 5 5 9 9 18 15 14 13 12 7 7 5 5 3 2 8 6 6 6 6 4 7 6 4 19 14 16 6 8 7
Wind_Direction
281 282 281 282 283 282 286 288 289 295 295 287 282 280 284 286 288 296 298 305 314 319 324 327 326 336 341 274 260 255 274 189 181 190 209 198 207 223 242 229 228 247 286 300 281 276 265
280 279 280 279 279 281 279 280 283 288 294 303 302 295 281 279 288 290 297 297 304 310 317 322 322 330 295 272 250 247 158 155 192 197 202 210 242 303 277 261 254 336 287 317 185 151 186
283 288 274 275 277 276 277 278 279 285 289 294 301 301 298 277 285 286 286 293 297 303 311 315 314 312 262 260 228 178 161 184 184 205 198 204 254 250 333 248 319 287 267 189 168 164 167
278 273 281 280 270 272 272 274 275 278 281 285 291 299 300 280 284 291 288 291 296 300 307 310 304 255 259 249 216 206 198 224 222 221 226 155 210 286 256 317 239 254 251 251 144 184 133
277 275 274 275 278 270 267 269 271 272 274 278 282 292 300 300 290 289 292 289 295 298 303 312 174 235 261 205 226 226 204 220 192 201 207 165 228 271 230 253 241 207 256 256 152 165 230
270 269 273 273 269 275 276 262 266 267 269 272 278 282 297 299 298 289 295 297 294 291 249 160 251 247 231 219 175 177 195 201 193 165 180 210 216 241 222 238 244 218 233 217 180 178 238
266 264 262 263 267 263 271 273 257 260 262 263 268 277 288 293 292 291 312 311 232 204 217 230 145 287 184 292 231 194 170 182 207 216 210 203 230 229 265 292 304 256 257 263 118 156 271
269 268 261 257 262 266 263 264 267 253 256 258 258 264 273 278 272 270 280 271 328 10 294 254 251 248 261 332 257 194 171 186 198 209 187 203 226 243 193 215 245 247 235 233 216 161 263
266 265 264 261 255 257 258 256 261 264 251 252 251 252 258 263 267 244 234 244 254 315 264 269 229 229 219 201 224 203 190 201 203 207 205 232 113 116 204 213 229 233 250 228 283 186 237
262 259 260 258 255 251 252 254 254 253 260 246 243 244 240 237 259 221 225 189 245 191 274 245 212 225 178 190 218 205 204 197 200 210 210 235 224 229 235 241 229 237 233 258 251 244 248
264 261 256 252 253 251 248 249 253 249 247 248 242 237 232 210 310 208 146 101 139 175 278 116 163 133 159 190 133 189 186 198 203 184 196 201 194 202 220 232 207 251 158 265 258 248 269
261 259 256 251 247 249 245 243 245 248 247 244 240 232 228 221 242 209 177 56 182 211 242 202 158 170 158 205 205 141 170 211 220 187 219 216 149 219 239 200 213 138 185 209 245 253 244
260 257 253 251 247 243 242 240 236 244 244 244 233 230 228 212 228 217 213 205 189 230 99 179 199 180 196 183 181 179 178 188 189 192 205 203 215 210 214 211 186 215 220 227 213 215 245
258 256 252 247 243 240 237 236 232 235 237 238 231 220 232 221 231 225 204 194 223 223 218 80 216 182 191 176 194 197 187 193 210 206 201 207 205 213 196 228 229 207 212 234 231 206 186
254 251 251 247 242 236 233 230 229 225 233 232 227 217 225 227 226 228 210 205 221 208 209 214 172 191 193 219 183 190 201 202 198 205 208 206 222 149 202 197 214 172 211 251 241 58 260
250 247 246 245 242 236 229 225 222 220 223 221 203 221 216 217 219 247 218 221 217 211 195 210 216 213 194 192 191 197 194 212 204 202 214 198 200 209 147 176 177 257 149 185 213 227 230
251 245 243 240 238 234 228 222 217 213 214 209 198 219 212 189 204 231 216 217 220 200 198 197 210 197 215 191 197 198 192 178 201 198 212 198 235 151 180 207 191 172 193 228 272 264 256
256 248 236 231 234 232 226 220 212 205 205 191 187 215 176 165 176 241 229 216 212 209 206 206 198 219 190 211 197 211 217 213 198 187 197 204 223 214 208 109 289 236 203 208 240 205 233
254 246 243 238 234 231 223 217 209 199 195 176 188 162 173 177 176 216 242 231 226 205 206 195 192 211 165 243 180 214 214 202 179 188 195 176 214 218 209 195 191 215 214 224 238 262 241
252 245 238 233 230 228 223 215 207 195 193 180 166 166 163 204 211 192 216 228 216 225 221 207 200 183 169 201 213 152 226 178 188 207 161 179 211 220 228 226 208 205 218 214 217 234 253
251 244 236 230 225 222 219 213 209 191 188 179 183 194 178 187 204 197 205 210 221 204 216 205 209 203 195 182 204 170 186 141 139 162 200 197 222 225 241 250 241 240 239 218 222 231 251
252 244 236 227 221 217 215 211 205 185 182 184 161 197 173 180 203 208 190 210 217 213 201 203 217 197 187 200 178 130 101 47 66 145 199 202 225 210 229 233 232 241 245 251 233 248 255
250 242 231 224 214 212 211 207 204 182 179 183 179 216 187 212 198 207 206 195 215 209 226 214 206 187 207 227 247 285 297 298 281 295 198 211 221 208 236 223 233 254 236 231 228 223 230
243 236 231 217 205 204 206 204 200 181 182 184 178 185 200 198 188 205 210 202 201 211 216 210 209 209 186 127 87 24 308 298 262 243 236 218 216 205 223 172 227 243 214 227 233 238 238
251 234 225 202 196 198 198 197 196 178 182 186 173 190 196 205 198 199 209 204 204 206 211 223 220 220 129 187 207 238 197 262 243 249 221 220 200 189 177 213 255 191 194 188 204 243 240
234 205 192 188 194 192 191 187 182 178 179 182 178 189 214 194 207 202 195 194 200 188 189 213 209 145 162 173 180 200 211 181 195 203 194 186 234 226 168 224 226 239 206 198 228 262 253
204 193 181 183 183 182 184 186 173 176 179 166 173 185 204 214 223 205 199 197 197 192 183 179 173 187 197 186 182 187 217 191 189 220 182 163 181 208 216 242 248 208 160 158 206 260 169
118 147 165 169 169 174 175 174 169 171 154 171 167 182 187 200 208 227 223 203 186 199 180 176 181 200 195 202 202 177 211 223 217 190 173 187 182 181 206 227 239 151 142 208 231 219 200
129 137 145 154 160 167 168 163 167 173 152 138 140 174 160 153 81 57 350 325 310 192 183 175 191 181 183 188 194 205 185 203 198 207 205 206 214 246 223 231 200 185 212 219 229 228 190